EW1587 Weather Reports


Display with metric or nautical units.
time (UTC)temp
F
wind
direction
speed
MPH
gust
MPH
rain 1hr
in
rain 24hr
in
rain mn
in
humidity
%
barometer
mb
20260505090056 38 12 2.0 12.0 0.00 0.00 0.00 67 1008.4
20260505085547 38 332 3.0 12.0 0.00 0.00 0.00 67 1008.4
20260505085047 38 336 3.0 12.0 0.00 0.00 0.00 67 1008.4
20260505084549 38 343 4.0 10.0 0.00 0.00 0.00 67 1008.3
20260505084044 38 343 2.0 7.0 0.00 0.00 0.00 67 1008.3
20260505083544 38 343 3.0 9.0 0.00 0.00 0.00 67 1008.2
20260505083048 38 345 2.0 8.0 0.00 0.00 0.00 67 1008.1
20260505082543 38 309 3.0 7.0 0.00 0.00 0.00 67 1008.0
20260505082044 38 345 3.0 7.0 0.00 0.00 0.00 67 1008.0
20260505081555 38 345 2.0 7.0 0.00 0.00 0.00 67 1008.0
20260505081040 38 349 0.0 7.0 0.00 0.00 0.00 66 1007.9
20260505080541 38 353 3.0 9.0 0.00 0.00 0.00 66 1007.9
20260505080045 38 345 4.0 9.0 0.00 0.00 0.00 66 1007.9
20260505075537 38 309 2.0 8.0 0.00 0.00 0.00 66 1007.9
20260505075111 38 292 3.0 8.0 0.00 0.00 0.00 66 1007.9
20260505074547 38 313 3.0 9.0 0.00 0.00 0.00 66 1007.8
20260505074036 38 260 2.0 9.0 0.00 0.00 0.00 66 1007.8
20260505073535 38 307 3.0 9.0 0.00 0.00 0.00 66 1007.8
20260505073034 38 301 1.0 5.0 0.00 0.00 0.00 66 1007.8
20260505072532 38 259 1.0 9.0 0.00 0.00 0.00 65 1007.9
20260505072032 38 338 1.0 9.0 0.00 0.00 0.00 64 1007.9
20260505071531 38 336 2.0 6.0 0.00 0.00 0.00 64 1007.9
20260505071031 38 299 2.0 7.0 0.00 0.00 0.00 64 1007.9
20260505070531 38 314 1.0 7.0 0.00 0.00 0.00 63 1007.7
20260505070031 38 335 1.0 7.0 0.00 0.00 0.00 63 1007.8
20260505065532 39 323 2.0 8.0 0.00 0.00 0.00 63 1007.7
20260505065030 38 307 2.0 8.0 0.00 0.00 0.00 64 1007.8
20260505064530 39 287 3.0 9.0 0.00 0.00 0.00 64 1007.8
20260505064029 39 296 4.0 9.0 0.00 0.00 0.00 64 1007.9
20260505063527 39 294 2.0 8.0 0.00 0.00 0.00 63 1007.9
20260505063034 39 290 1.0 5.0 0.00 0.00 0.00 63 1007.7
20260505062526 39 263 1.0 7.0 0.00 0.00 0.00 63 1007.6
20260505062026 39 311 2.0 7.0 0.00 0.00 0.00 63 1007.7
20260505061530 39 326 1.0 4.0 0.00 0.00 0.00 62 1007.8
20260505061023 39 309 1.0 5.0 0.00 0.00 0.00 61 1007.8
20260505060522 39 298 0.0 5.0 0.00 0.00 0.00 60 1007.7
20260505060022 40 341 2.0 5.0 0.00 0.00 0.00 60 1007.7
20260505055520 40 1 1.0 7.0 0.00 0.00 0.00 59 1007.6
20260505055020 40 42 3.0 7.0 0.00 0.00 0.00 59 1007.7
20260505054523 40 349 2.0 7.0 0.00 0.00 0.00 59 1007.6
20260505054017 40 355 2.0 8.0 0.00 0.00 0.00 58 1007.6
20260505053517 40 346 1.0 8.0 0.00 0.00 0.00 58 1007.5
20260505053015 40 18 3.0 7.0 0.00 0.00 0.00 58 1007.5
20260505052514 40 336 1.0 5.0 0.00 0.00 0.00 58 1007.4
20260505052012 41 340 0.0 6.0 0.00 0.00 0.00 57 1007.3
20260505051512 41 328 1.0 6.0 0.00 0.00 0.00 56 1007.2
20260505051010 41 300 2.0 6.0 0.00 0.00 0.00 56 1007.3
20260505050509 41 302 1.0 8.0 0.00 0.00 0.00 56 1007.3
20260505041503 43 343 3.0 10.0 0.00 0.00 0.00 53 1006.9
20260505041001 42 347 4.0 9.0 0.00 0.00 0.00 54 1007.0
20260505040501 42 16 3.0 8.0 0.00 0.00 0.00 55 1007.0
20260505035559 43 330 2.0 8.0 0.00 0.00 0.00 57 1006.9
20260505035100 43 27 2.0 6.0 0.00 0.00 0.00 57 1006.9
20260505034558 43 357 3.0 6.0 0.00 0.00 0.00 56 1006.8
20260505034056 43 345 2.0 6.0 0.00 0.00 0.00 56 1006.8
20260505033555 43 328 3.0 9.0 0.00 0.00 0.00 56 1006.8
20260505033055 43 320 2.0 9.0 0.00 0.00 0.00 56 1006.7
20260505032553 43 309 1.0 6.0 0.00 0.00 0.00 55 1006.7
20260505032052 43 349 1.0 10.0 0.00 0.00 0.00 55 1006.7
20260505031552 43 11 1.0 10.0 0.00 0.00 0.00 55 1006.7
20260505031051 43 300 1.0 7.0 0.00 0.00 0.00 55 1006.6
20260505030554 43 26 1.0 7.0 0.00 0.00 0.00 55 1006.6
20260505030051 44 316 1.0 7.0 0.00 0.00 0.00 54 1006.6
20260505025550 44 320 2.0 7.0 0.00 0.00 0.00 54 1006.5
20260505025049 44 295 1.0 5.0 0.00 0.00 0.00 53 1006.4
20260505024605 44 311 1.0 5.0 0.00 0.00 0.00 53 1006.4
20260505024052 44 299 1.0 6.0 0.00 0.00 0.00 52 1006.2
20260505023546 44 328 2.0 7.0 0.00 0.00 0.00 51 1006.2
20260505023045 44 307 2.0 7.0 0.00 0.00 0.00 51 1006.2
20260505022545 44 316 2.0 6.0 0.00 0.00 0.00 51 1006.2
20260505022044 45 302 3.0 9.0 0.00 0.00 0.00 50 1006.1
20260505021601 45 331 2.0 9.0 0.00 0.00 0.00 50 1006.0
20260505021041 45 351 1.0 8.0 0.00 0.00 0.00 50 1005.9
20260505020541 45 290 1.0 8.0 0.00 0.00 0.00 49 1005.8
20260505020046 45 332 2.0 12.0 0.00 0.00 0.00 48 1005.8
20260505015539 45 332 3.0 13.0 0.00 0.00 0.00 48 1005.7
20260505015138 45 302 3.0 13.0 0.00 0.00 0.00 48 1005.7
20260505014539 45 5 2.0 12.0 0.00 0.00 0.00 47 1005.6
20260505014037 45 300 4.0 12.0 0.00 0.00 0.00 47 1005.6
20260505013540 45 302 4.0 12.0 0.00 0.00 0.00 47 1005.5
20260505013035 46 341 2.0 8.0 0.00 0.00 0.00 47 1005.5
20260505012534 46 340 1.0 11.0 0.00 0.00 0.00 46 1005.4
20260505012033 46 333 4.0 12.0 0.00 0.00 0.00 45 1005.2
20260505011544 46 280 4.0 12.0 0.00 0.00 0.00 45 1005.3
20260505011030 46 309 3.0 13.0 0.00 0.00 0.00 45 1005.1
20260505010532 47 304 5.0 17.0 0.00 0.00 0.00 44 1005.1
20260505010029 47 340 6.0 17.0 0.00 0.00 0.00 43 1005.0
20260505005530 47 298 5.0 17.0 0.00 0.00 0.00 43 1004.9
20260505005028 47 312 6.0 17.0 0.00 0.00 0.00 43 1004.9
20260505004538 47 318 2.0 9.0 0.00 0.00 0.00 44 1004.9
20260505004027 47 341 2.0 9.0 0.00 0.00 0.00 45 1005.0
20260505003528 47 345 3.0 13.0 0.00 0.00 0.00 44 1004.9
20260505003028 47 333 7.0 13.0 0.00 0.00 0.00 44 1004.9
20260505002527 47 339 6.0 13.0 0.00 0.00 0.00 44 1004.9
20260505002028 47 50 6.0 15.0 0.00 0.00 0.00 44 1004.9
20260505001525 47 4 5.0 15.0 0.00 0.00 0.00 44 1004.9
20260505001024 47 339 4.0 19.0 0.00 0.00 0.00 45 1004.8
20260505000524 47 337 6.0 19.0 0.00 0.00 0.00 44 1004.8
20260505000023 47 351 4.0 14.0 0.00 0.00 0.00 46 1004.8
20260504235523 47 316 4.0 18.0 0.00 0.00 0.00 47 1004.8
20260504235023 47 312 4.0 21.0 0.00 0.00 0.00 46 1004.7
20260504234520 48 9 10.0 21.0 0.00 0.00 0.00 45 1004.7
20260504234019 48 287 7.0 23.0 0.00 0.00 0.00 45 1004.5
20260504233519 49 295 10.0 23.0 0.00 0.00 0.00 44 1004.6
20260504233018 49 14 6.0 20.0 0.00 0.00 0.00 45 1004.5
20260504232516 49 333 9.0 20.0 0.00 0.00 0.00 44 1004.3
20260504232015 49 20 9.0 16.0 0.00 0.00 0.00 44 1004.1
20260504231515 49 12 7.0 18.0 0.00 0.00 0.00 44 1004.2
20260504231015 49 339 8.0 19.0 0.00 0.00 0.00 44 1004.1
20260504230512 50 18 8.0 15.0 0.00 0.00 0.00 43 1004.0
20260504230012 50 312 8.0 0.0 0.00 0.00 0.00 43 1003.9
20260504225512 50 298 11.0 22.0 0.00 0.00 0.00 42 1003.9
20260504225011 50 335 7.0 20.0 0.00 0.00 0.00 42 1003.8
20260504224510 50 307 6.0 20.0 0.00 0.00 0.00 43 1003.6
20260504224009 50 25 6.0 16.0 0.00 0.00 0.00 42 1003.6
20260504223508 50 349 8.0 19.0 0.00 0.00 0.00 41 1003.5
20260504223007 50 333 10.0 19.0 0.00 0.00 0.00 41 1003.4
20260504222506 51 343 7.0 14.0 0.00 0.00 0.00 42 1003.3
20260504222106 51 276 6.0 16.0 0.00 0.00 0.00 41 1003.2
20260504221504 52 311 6.0 19.0 0.00 0.00 0.00 42 1003.0
20260504221004 51 30 5.0 19.0 0.00 0.00 0.00 43 1003.0
20260504220505 51 311 9.0 19.0 0.00 0.00 0.00 42 1003.0
20260504220003 51 253 6.0 24.0 0.00 0.00 0.00 43 1003.0
20260504215503 52 343 8.0 21.0 0.00 0.00 0.00 40 1003.0
20260504215003 51 4 6.0 17.0 0.00 0.00 0.00 42 1002.9
20260504214502 51 349 5.0 17.0 0.00 0.00 0.00 42 1002.8
20260504214001 52 25 7.0 17.0 0.00 0.00 0.00 42 1002.9
20260504213601 52 318 6.0 20.0 0.00 0.00 0.00 44 1002.7
20260504213126 52 255 6.0 22.0 0.00 0.00 0.00 43 1002.7
20260504212602 52 341 9.0 22.0 0.00 0.00 0.00 43 1002.6
20260504212059 52 345 8.0 20.0 0.00 0.00 0.00 44 1002.5
20260504211557 52 315 7.0 22.0 0.00 0.00 0.00 45 1002.5
20260504211056 52 335 9.0 22.0 0.00 0.00 0.00 44 1002.5
20260504210556 52 357 10.0 18.0 0.00 0.00 0.00 44 1002.3
20260504210100 53 337 9.0 19.0 0.00 0.00 0.00 43 1002.3
20260504205553 53 309 8.0 19.0 0.00 0.00 0.00 45 1002.3
20260504205054 53 297 7.0 18.0 0.00 0.00 0.00 42 1002.2
20260504204603 54 355 8.0 20.0 0.00 0.00 0.00 43 1002.1
20260504204052 53 292 8.0 20.0 0.00 0.00 0.00 44 1002.0
20260504203554 53 267 11.0 20.0 0.00 0.00 0.00 43 1002.0
20260504203052 53 350 7.0 18.0 0.00 0.00 0.00 45 1001.9
20260504202552 53 345 7.0 18.0 0.00 0.00 0.00 45 1002.0
20260504202052 53 332 5.0 18.0 0.00 0.00 0.00 45 1001.9
20260504201550 53 334 10.0 17.0 0.00 0.00 0.00 44 1001.9
20260504201049 54 343 7.0 17.0 0.00 0.00 0.00 43 1001.8
20260504200551 54 25 7.0 16.0 0.00 0.00 0.00 43 1001.8
20260504200053 54 318 7.0 18.0 0.00 0.00 0.00 45 1001.7
20260504195548 54 292 9.0 20.0 0.00 0.00 0.00 44 1001.6
20260504195048 54 314 10.0 21.0 0.00 0.00 0.00 42 1001.6
20260504194547 54 338 10.0 21.0 0.00 0.00 0.00 42 1001.5
20260504194046 55 20 8.0 22.0 0.00 0.00 0.00 43 1001.5
20260504193548 54 307 9.0 23.0 0.00 0.00 0.00 44 1001.5
20260504193045 54 312 9.0 22.0 0.00 0.00 0.00 42 1001.3
20260504192545 55 345 8.0 20.0 0.00 0.00 0.00 43 1001.3
20260504192044 55 311 8.0 20.0 0.00 0.00 0.00 43 1001.3
20260504191543 55 5 4.0 26.0 0.00 0.00 0.00 44 1001.1
20260504191043 55 300 10.0 26.0 0.00 0.00 0.00 43 1000.9
20260504190542 55 14 8.0 21.0 0.00 0.00 0.00 43 1000.8
20260504190041 56 347 8.0 26.0 0.00 0.00 0.00 44 1000.9
20260504185541 55 333 9.0 26.0 0.00 0.00 0.00 44 1000.8
20260504185041 55 325 10.0 24.0 0.00 0.00 0.00 43 1000.8
20260504184539 55 354 9.0 18.0 0.00 0.00 0.00 43 1000.6
20260504184039 56 4 6.0 18.0 0.00 0.00 0.00 44 1000.6
20260504183539 56 314 7.0 25.0 0.00 0.00 0.00 46 1000.4
20260504183038 55 278 8.0 25.0 0.00 0.00 0.00 44 1000.5
20260504182538 56 314 11.0 21.0 0.00 0.00 0.00 45 1000.3
20260504182037 55 311 9.0 21.0 0.00 0.00 0.00 46 1000.3
20260504181542 56 313 10.0 19.0 0.00 0.00 0.00 45 1000.3
20260504181037 56 297 8.0 21.0 0.00 0.00 0.00 45 1000.1
20260504180540 56 349 8.0 21.0 0.00 0.00 0.00 45 1000.0
20260504180036 57 355 9.0 17.0 0.00 0.00 0.00 47 1000.0
20260504175539 56 295 5.0 19.0 0.00 0.00 0.00 48 1000.0
20260504175038 56 9 7.0 19.0 0.00 0.00 0.00 46 1000.0
20260504174536 56 349 7.0 14.0 0.00 0.00 0.00 45 999.9
20260504174036 56 8 5.0 15.0 0.00 0.00 0.00 47 999.9
20260504173538 56 355 7.0 25.0 0.00 0.00 0.00 45 999.8
20260504173036 56 307 7.0 25.0 0.00 0.00 0.00 47 999.6
20260504172535 55 320 9.0 22.0 0.00 0.00 0.00 46 999.5
20260504172035 55 278 11.0 22.0 0.00 0.00 0.00 45 999.5
20260504171534 55 269 9.0 24.0 0.00 0.00 0.00 45 999.6
20260504171035 55 285 11.0 24.0 0.00 0.00 0.00 44 999.7
20260504170534 55 347 5.0 16.0 0.00 0.00 0.00 46 999.7
20260504151028 56 262 11.0 22.0 0.00 0.00 0.00 54 998.3
20260504150531 55 304 9.0 26.0 0.00 0.00 0.00 53 998.3
20260504141025 55 278 8.0 22.0 0.00 0.00 0.00 54 998.1
20260504140525 55 298 11.0 21.0 0.00 0.00 0.00 53 998.0
20260504130520 54 20 7.0 17.0 0.00 0.00 0.00 52 997.8
20260504110511 57 285 15.0 26.0 0.00 0.00 0.00 48 995.1
20260504100545 56 264 10.0 17.0 0.00 0.00 0.00 46 995.2